Year,Month,Day,Hour,Minute,Value (Times are PST for temperature in C)
2022,03,28,00,00,-8.00
2022,03,28,00,01,-8.00
2022,03,28,00,02,-8.00
2022,03,28,00,03,-8.10
2022,03,28,00,04,-8.10
2022,03,28,00,05,-8.10
2022,03,28,00,06,-8.20
2022,03,28,00,07,-8.20
2022,03,28,00,08,-8.20
2022,03,28,00,09,-8.30
2022,03,28,00,10,-8.30
2022,03,28,00,11,-8.30
2022,03,28,00,12,-8.30
2022,03,28,00,13,-8.40
2022,03,28,00,14,-8.40
2022,03,28,00,15,-8.40
2022,03,28,00,16,-8.40
2022,03,28,00,17,-8.40
2022,03,28,00,18,-8.50
2022,03,28,00,19,-8.50
2022,03,28,00,20,-8.50
2022,03,28,00,21,-8.60
2022,03,28,00,22,-8.60
2022,03,28,00,23,-8.70
2022,03,28,00,24,-8.70
2022,03,28,00,25,-8.70
2022,03,28,00,26,-8.70
2022,03,28,00,27,-8.80
2022,03,28,00,28,-8.80
2022,03,28,00,29,-8.80
2022,03,28,00,30,-8.90
2022,03,28,00,31,-8.90
2022,03,28,00,32,-8.90
2022,03,28,00,33,-8.90
2022,03,28,00,34,-8.90
2022,03,28,00,35,-8.90
2022,03,28,00,36,-9.00
2022,03,28,00,37,-9.00
2022,03,28,00,38,-9.00
2022,03,28,00,39,-9.10
2022,03,28,00,40,-9.10
2022,03,28,00,41,-9.10
2022,03,28,00,42,-9.10
2022,03,28,00,43,-9.10
2022,03,28,00,44,-9.20
2022,03,28,00,45,-9.20
2022,03,28,00,46,-9.20
2022,03,28,00,47,-9.20
2022,03,28,00,48,-9.30
2022,03,28,00,49,-9.30
2022,03,28,00,50,-9.30
2022,03,28,00,51,-9.40
2022,03,28,00,52,-9.40
2022,03,28,00,53,-9.40
2022,03,28,00,54,-9.40
2022,03,28,00,55,-9.50
2022,03,28,00,56,-9.50
2022,03,28,00,57,-9.50
2022,03,28,00,58,-9.60
2022,03,28,00,59,-9.60
2022,03,28,01,00,-9.60
2022,03,28,01,01,-9.60
2022,03,28,01,02,-9.70
2022,03,28,01,03,-9.70
2022,03,28,01,04,-9.70
2022,03,28,01,05,-9.70
2022,03,28,01,06,-9.70
2022,03,28,01,07,-9.70
2022,03,28,01,08,-9.70
2022,03,28,01,09,-9.70
2022,03,28,01,10,-9.70
2022,03,28,01,11,-9.70
2022,03,28,01,12,-9.80
2022,03,28,01,13,-9.80
2022,03,28,01,14,-9.80
2022,03,28,01,15,-9.80
2022,03,28,01,16,-9.80
2022,03,28,01,17,-9.80
2022,03,28,01,18,-9.80
2022,03,28,01,19,-9.90
2022,03,28,01,20,-9.90
2022,03,28,01,21,-9.90
2022,03,28,01,22,-9.90
2022,03,28,01,23,-9.90
2022,03,28,01,24,-9.90
2022,03,28,01,25,-9.90
2022,03,28,01,26,-10.00
2022,03,28,01,27,-10.00
2022,03,28,01,28,-10.10
2022,03,28,01,29,-10.10
2022,03,28,01,30,-10.10
2022,03,28,01,31,-10.10
2022,03,28,01,32,-10.20
2022,03,28,01,33,-10.20
2022,03,28,01,34,-10.20
2022,03,28,01,35,-10.20
2022,03,28,01,36,-10.20
2022,03,28,01,37,-10.30
2022,03,28,01,38,-10.30
2022,03,28,01,39,-10.30
2022,03,28,01,40,-10.30
2022,03,28,01,41,-10.40
2022,03,28,01,42,-10.40
2022,03,28,01,43,-10.40
2022,03,28,01,44,-10.40
2022,03,28,01,45,-10.40
2022,03,28,01,46,-10.50
2022,03,28,01,47,-10.50
2022,03,28,01,48,-10.50
2022,03,28,01,49,-10.60
2022,03,28,01,50,-10.60
2022,03,28,01,51,-10.60
2022,03,28,01,52,-10.60
2022,03,28,01,53,-10.60
2022,03,28,01,54,-10.60
2022,03,28,01,55,-10.60
2022,03,28,01,56,-10.60
2022,03,28,01,57,-10.60
2022,03,28,01,58,-10.60
2022,03,28,01,59,-10.60
2022,03,28,02,00,-10.60
2022,03,28,02,01,-10.60
2022,03,28,02,02,-10.50
2022,03,28,02,03,-10.50
2022,03,28,02,04,-10.50
2022,03,28,02,05,-10.40
2022,03,28,02,06,-10.40
2022,03,28,02,07,-10.50
2022,03,28,02,08,-10.50
2022,03,28,02,09,-10.50
2022,03,28,02,10,-10.50
2022,03,28,02,11,-10.50
2022,03,28,02,12,-10.60
2022,03,28,02,13,-10.60
2022,03,28,02,14,-10.60
2022,03,28,02,15,-10.70
2022,03,28,02,16,-10.60
2022,03,28,02,17,-10.60
2022,03,28,02,18,-10.60
2022,03,28,02,19,-10.60
2022,03,28,02,20,-10.60
2022,03,28,02,21,-10.70
2022,03,28,02,22,-10.70
2022,03,28,02,23,-10.70
2022,03,28,02,24,-10.70
2022,03,28,02,25,-10.80
2022,03,28,02,26,-10.80
2022,03,28,02,27,-10.80
2022,03,28,02,28,-10.90
2022,03,28,02,29,-10.90
2022,03,28,02,30,-10.90
2022,03,28,02,31,-10.90
2022,03,28,02,32,-10.90
2022,03,28,02,33,-10.90
2022,03,28,02,34,-10.90
2022,03,28,02,35,-10.90
2022,03,28,02,36,-10.90
2022,03,28,02,37,-10.90
2022,03,28,02,38,-10.90
2022,03,28,02,39,-10.90
2022,03,28,02,40,-10.90
2022,03,28,02,41,-10.90
2022,03,28,02,42,-10.90
2022,03,28,02,43,-11.00
2022,03,28,02,44,-11.00
2022,03,28,02,45,-11.00
2022,03,28,02,46,-11.00
2022,03,28,02,47,-11.10
2022,03,28,02,48,-11.10
2022,03,28,02,49,-11.10
2022,03,28,02,50,-11.20
2022,03,28,02,51,-11.20
2022,03,28,02,52,-11.10
2022,03,28,02,53,-11.20
2022,03,28,02,54,-11.20
2022,03,28,02,55,-11.20
2022,03,28,02,56,-11.20
2022,03,28,02,57,-11.20
2022,03,28,02,58,-11.20
2022,03,28,02,59,-11.20
2022,03,28,03,00,-11.30
2022,03,28,03,01,-11.30
2022,03,28,03,02,-11.30
2022,03,28,03,03,-11.30
2022,03,28,03,04,-11.40
2022,03,28,03,05,-11.40
2022,03,28,03,06,-11.40
2022,03,28,03,07,-11.50
2022,03,28,03,08,-11.50
2022,03,28,03,09,-11.50
2022,03,28,03,10,-11.60
2022,03,28,03,11,-11.60
2022,03,28,03,12,-11.60
2022,03,28,03,13,-11.60
2022,03,28,03,14,-11.60
2022,03,28,03,15,-11.60
2022,03,28,03,16,-11.60
2022,03,28,03,17,-11.50
2022,03,28,03,18,-11.50
2022,03,28,03,19,-11.50
2022,03,28,03,20,-11.40
2022,03,28,03,21,-11.40
2022,03,28,03,22,-11.40
2022,03,28,03,23,-11.40
2022,03,28,03,24,-11.40
2022,03,28,03,25,-11.40
2022,03,28,03,26,-11.40
2022,03,28,03,27,-11.40
2022,03,28,03,28,-11.40
2022,03,28,03,29,-11.40
2022,03,28,03,30,-11.40
2022,03,28,03,31,-11.40
2022,03,28,03,32,-11.40
2022,03,28,03,33,-11.30
2022,03,28,03,34,-11.30
2022,03,28,03,35,-11.30
2022,03,28,03,36,-11.30
2022,03,28,03,37,-11.30
2022,03,28,03,38,-11.30
2022,03,28,03,39,-11.30
2022,03,28,03,40,-11.30
2022,03,28,03,41,-11.30
2022,03,28,03,42,-11.30
2022,03,28,03,43,-11.30
2022,03,28,03,44,-11.30
2022,03,28,03,45,-11.30
2022,03,28,03,46,-11.30
2022,03,28,03,47,-11.30
2022,03,28,03,48,-11.30
2022,03,28,03,49,-11.40
2022,03,28,03,50,-11.40
2022,03,28,03,51,-11.40
2022,03,28,03,52,-11.40
2022,03,28,03,53,-11.40
2022,03,28,03,54,-11.50
2022,03,28,03,55,-11.50
2022,03,28,03,56,-11.60
2022,03,28,03,57,-11.60
2022,03,28,03,58,-11.60
2022,03,28,03,59,-11.70
2022,03,28,04,00,-11.70
2022,03,28,04,01,-11.70
2022,03,28,04,02,-11.70
2022,03,28,04,03,-11.70
2022,03,28,04,04,-11.70
2022,03,28,04,05,-11.80
2022,03,28,04,06,-11.80
2022,03,28,04,07,-11.80
2022,03,28,04,08,-11.80
2022,03,28,04,09,-11.80
2022,03,28,04,10,-11.80
2022,03,28,04,11,-11.80
2022,03,28,04,12,-11.80
2022,03,28,04,13,-11.90
2022,03,28,04,14,-11.90
2022,03,28,04,15,-11.90
2022,03,28,04,16,-11.90
2022,03,28,04,17,-11.90
2022,03,28,04,18,-11.90
2022,03,28,04,19,-11.90
2022,03,28,04,20,-11.90
2022,03,28,04,21,-11.90
2022,03,28,04,22,-11.90
2022,03,28,04,23,-11.90
2022,03,28,04,24,-12.00
2022,03,28,04,25,-12.00
2022,03,28,04,26,-12.00
2022,03,28,04,27,-12.00
2022,03,28,04,28,-12.10
2022,03,28,04,29,-12.10
2022,03,28,04,30,-12.10
2022,03,28,04,31,-12.10
2022,03,28,04,32,-12.10
2022,03,28,04,33,-12.20
2022,03,28,04,34,-12.20
2022,03,28,04,35,-12.30
2022,03,28,04,36,-12.30
2022,03,28,04,37,-12.30
2022,03,28,04,38,-12.30
2022,03,28,04,39,-12.30
2022,03,28,04,40,-12.30
2022,03,28,04,41,-12.30
2022,03,28,04,42,-12.30
2022,03,28,04,43,-12.30
2022,03,28,04,44,-12.40
2022,03,28,04,45,-12.40
2022,03,28,04,46,-12.40
2022,03,28,04,47,-12.40
2022,03,28,04,48,-12.50
2022,03,28,04,49,-12.50
2022,03,28,04,50,-12.50
2022,03,28,04,51,-12.50
2022,03,28,04,52,-12.50
2022,03,28,04,53,-12.50
2022,03,28,04,54,-12.50
2022,03,28,04,55,-12.50
2022,03,28,04,56,-12.50
2022,03,28,04,57,-12.40
2022,03,28,04,58,-12.40
2022,03,28,04,59,-12.40
2022,03,28,05,00,-12.40
2022,03,28,05,01,-12.40
2022,03,28,05,02,-12.40
2022,03,28,05,03,-12.40
2022,03,28,05,04,-12.40
2022,03,28,05,05,-12.50
2022,03,28,05,06,-12.50
2022,03,28,05,07,-12.50
2022,03,28,05,08,-12.50
2022,03,28,05,09,-12.50
2022,03,28,05,10,-12.60
2022,03,28,05,11,-12.60
2022,03,28,05,12,-12.60
2022,03,28,05,13,-12.60
2022,03,28,05,14,-12.60
2022,03,28,05,15,-12.60
2022,03,28,05,16,-12.60
2022,03,28,05,17,-12.60
2022,03,28,05,18,-12.60
2022,03,28,05,19,-12.60
2022,03,28,05,20,-12.60
2022,03,28,05,21,-12.60
2022,03,28,05,22,-12.70
2022,03,28,05,23,-12.60
2022,03,28,05,24,-12.60
2022,03,28,05,25,-12.70
2022,03,28,05,26,-12.70
2022,03,28,05,27,-12.70
2022,03,28,05,28,-12.70
2022,03,28,05,29,-12.70
2022,03,28,05,30,-12.80
2022,03,28,05,31,-12.80
2022,03,28,05,32,-12.80
2022,03,28,05,33,-12.70
2022,03,28,05,34,-12.80
2022,03,28,05,35,-12.80
2022,03,28,05,36,-12.80
2022,03,28,05,37,-12.80
2022,03,28,05,38,-12.80
2022,03,28,05,39,-12.80
2022,03,28,05,40,-12.80
2022,03,28,05,41,-12.80
2022,03,28,05,42,-12.80
2022,03,28,05,43,-12.80
2022,03,28,05,44,-12.80
2022,03,28,05,45,-12.80
2022,03,28,05,46,-12.80
2022,03,28,05,47,-12.90
2022,03,28,05,48,-12.90
2022,03,28,05,49,-12.90
2022,03,28,05,50,-12.80
2022,03,28,05,51,-12.80
2022,03,28,05,52,-12.80
2022,03,28,05,53,-12.80
2022,03,28,05,54,-12.80
2022,03,28,05,55,-12.80
2022,03,28,05,56,-12.80
2022,03,28,05,57,-12.80
2022,03,28,05,58,-12.80
2022,03,28,05,59,-12.80
2022,03,28,06,00,-12.80
2022,03,28,06,01,-12.80
2022,03,28,06,02,-12.80
2022,03,28,06,03,-12.80
2022,03,28,06,04,-12.90
2022,03,28,06,05,-12.90
2022,03,28,06,06,-12.90
2022,03,28,06,07,-12.90
2022,03,28,06,08,-12.90
2022,03,28,06,09,-13.00
2022,03,28,06,10,-13.00
2022,03,28,06,11,-13.00
2022,03,28,06,12,-13.10
2022,03,28,06,13,-13.10
2022,03,28,06,14,-13.10
2022,03,28,06,15,-13.10
2022,03,28,06,16,-13.10
2022,03,28,06,17,-13.20
2022,03,28,06,18,-13.20
2022,03,28,06,19,-13.20
2022,03,28,06,20,-13.30
2022,03,28,06,21,-13.30
2022,03,28,06,22,-13.30
2022,03,28,06,23,-13.30
2022,03,28,06,24,-13.30
2022,03,28,06,25,-13.40
2022,03,28,06,26,-13.40
2022,03,28,06,27,-13.40
2022,03,28,06,28,-13.40
2022,03,28,06,29,-13.50
2022,03,28,06,30,-13.50
2022,03,28,06,31,-13.50
2022,03,28,06,32,-13.50
2022,03,28,06,33,-13.60
2022,03,28,06,34,-13.60
2022,03,28,06,35,-13.60
2022,03,28,06,36,-13.50
2022,03,28,06,37,-13.50
2022,03,28,06,38,-13.50
2022,03,28,06,39,-13.50
2022,03,28,06,40,-13.50
2022,03,28,06,41,-13.50
2022,03,28,06,42,-13.60
2022,03,28,06,43,-13.60
2022,03,28,06,44,-13.60
2022,03,28,06,45,-13.60
2022,03,28,06,46,-13.60
2022,03,28,06,47,-13.60
2022,03,28,06,48,-13.50
2022,03,28,06,49,-13.50
2022,03,28,06,50,-13.50
2022,03,28,06,51,-13.60
2022,03,28,06,52,-13.60
2022,03,28,06,53,-13.60
2022,03,28,06,54,-13.60
2022,03,28,06,55,-13.60
2022,03,28,06,56,-13.60
2022,03,28,06,57,-13.70
2022,03,28,06,58,-13.70
2022,03,28,06,59,-13.70
2022,03,28,07,00,-13.60
2022,03,28,07,01,-13.70
2022,03,28,07,02,-13.70
2022,03,28,07,03,-13.60
2022,03,28,07,04,-13.70
2022,03,28,07,05,-13.70
2022,03,28,07,06,-13.70
2022,03,28,07,07,-13.70
2022,03,28,07,08,-13.70
2022,03,28,07,09,-13.70
2022,03,28,07,10,-13.70
2022,03,28,07,11,-13.70
2022,03,28,07,12,-13.70
2022,03,28,07,13,-13.70
2022,03,28,07,14,-13.70
2022,03,28,07,15,-13.80
2022,03,28,07,16,-13.80
2022,03,28,07,17,-13.80
2022,03,28,07,18,-13.80
2022,03,28,07,19,-13.80
2022,03,28,07,20,-13.80
2022,03,28,07,21,-13.90
2022,03,28,07,22,-13.90
2022,03,28,07,23,-13.90
2022,03,28,07,24,-13.90
2022,03,28,07,25,-13.90
2022,03,28,07,26,-14.00
2022,03,28,07,27,-14.00
2022,03,28,07,28,-14.00
2022,03,28,07,29,-14.00
2022,03,28,07,30,-14.00
2022,03,28,07,31,-14.00
2022,03,28,07,32,-14.00
2022,03,28,07,33,-14.00
2022,03,28,07,34,-14.10
2022,03,28,07,35,-14.10
2022,03,28,07,36,-14.10
2022,03,28,07,37,-14.10
2022,03,28,07,38,-14.10
2022,03,28,07,39,-14.10
2022,03,28,07,40,-14.10
2022,03,28,07,41,-14.10
2022,03,28,07,42,-14.10
2022,03,28,07,43,-14.10
2022,03,28,07,44,-14.10
2022,03,28,07,45,-14.10
2022,03,28,07,46,-14.10
2022,03,28,07,47,-14.10
2022,03,28,07,48,-14.10
2022,03,28,07,49,-14.10
2022,03,28,07,50,-14.10
2022,03,28,07,51,-14.10
2022,03,28,07,52,-14.10
2022,03,28,07,53,-14.10
2022,03,28,07,54,-14.10
2022,03,28,07,55,-14.10
2022,03,28,07,56,-14.10
2022,03,28,07,57,-14.10
2022,03,28,07,58,-14.10
2022,03,28,07,59,-14.10
2022,03,28,08,00,-14.10
2022,03,28,08,01,-14.20
2022,03,28,08,02,-14.20
2022,03,28,08,03,-14.30
2022,03,28,08,04,-14.30
2022,03,28,08,05,-14.30
2022,03,28,08,06,-14.30
2022,03,28,08,07,-14.30
2022,03,28,08,08,-14.40
2022,03,28,08,09,-14.40
2022,03,28,08,10,-14.40
2022,03,28,08,11,-14.30
2022,03,28,08,12,-14.30
2022,03,28,08,13,-14.30
2022,03,28,08,14,-14.30
2022,03,28,08,15,-14.30
2022,03,28,08,16,-14.30
2022,03,28,08,17,-14.30
2022,03,28,08,18,-14.20
2022,03,28,08,19,-14.20
2022,03,28,08,20,-14.20
2022,03,28,08,21,-14.20
2022,03,28,08,22,-14.20
2022,03,28,08,23,-14.10
2022,03,28,08,24,-14.10
2022,03,28,08,25,-14.10
2022,03,28,08,26,-14.10
2022,03,28,08,27,-14.10
2022,03,28,08,28,-14.00
2022,03,28,08,29,-14.00
2022,03,28,08,30,-13.90
2022,03,28,08,31,-13.90
2022,03,28,08,32,-13.90
2022,03,28,08,33,-13.80
2022,03,28,08,34,-13.80
2022,03,28,08,35,-13.80
2022,03,28,08,36,-13.70
2022,03,28,08,37,-13.70
2022,03,28,08,38,-13.70
2022,03,28,08,39,-13.60
2022,03,28,08,40,-13.60
2022,03,28,08,41,-13.60
2022,03,28,08,42,-13.50
2022,03,28,08,43,-13.50
2022,03,28,08,44,-13.40
2022,03,28,08,45,-13.40
2022,03,28,08,46,-13.40
2022,03,28,08,47,-13.40
2022,03,28,08,48,-13.40
2022,03,28,08,49,-13.30
2022,03,28,08,50,-13.30
2022,03,28,08,51,-13.30
2022,03,28,08,52,-13.30
2022,03,28,08,53,-13.30
2022,03,28,08,54,-13.30
2022,03,28,08,55,-13.30
2022,03,28,08,56,-13.30
2022,03,28,08,57,-13.30
2022,03,28,08,58,-13.30
2022,03,28,08,59,-13.20
2022,03,28,09,00,-13.20
2022,03,28,09,01,-13.20
2022,03,28,09,02,-13.20
2022,03,28,09,03,-13.20
2022,03,28,09,04,-13.20
2022,03,28,09,05,-13.20
2022,03,28,09,06,-13.20
2022,03,28,09,07,-13.20
2022,03,28,09,08,-13.20
2022,03,28,09,09,-13.20
2022,03,28,09,10,-13.10
2022,03,28,09,11,-13.10
2022,03,28,09,12,-13.00
2022,03,28,09,13,-13.00
2022,03,28,09,14,-13.00
2022,03,28,09,15,-12.90
2022,03,28,09,16,-12.90
2022,03,28,09,17,-12.90
2022,03,28,09,18,-12.80
2022,03,28,09,19,-12.80
2022,03,28,09,20,-12.80
2022,03,28,09,21,-12.80
2022,03,28,09,22,-12.80
2022,03,28,09,23,-12.70
2022,03,28,09,24,-12.70
2022,03,28,09,25,-12.70
2022,03,28,09,26,-12.70
2022,03,28,09,27,-12.70
2022,03,28,09,28,-12.70
2022,03,28,09,29,-12.60
2022,03,28,09,30,-12.60
2022,03,28,09,31,-12.60
2022,03,28,09,32,-12.60
2022,03,28,09,33,-12.60
2022,03,28,09,34,-12.60
2022,03,28,09,35,-12.60
2022,03,28,09,36,-12.60
2022,03,28,09,37,-12.70
2022,03,28,09,38,-12.70
2022,03,28,09,39,-12.70
2022,03,28,09,40,-12.70
2022,03,28,09,41,-12.70
2022,03,28,09,42,-12.70
2022,03,28,09,43,-12.60
2022,03,28,09,44,-12.60
2022,03,28,09,45,-12.60
2022,03,28,09,46,-12.60
2022,03,28,09,47,-12.60
2022,03,28,09,48,-12.50
2022,03,28,09,49,-12.50
2022,03,28,09,50,-12.50
2022,03,28,09,51,-12.40
2022,03,28,09,52,-12.40
2022,03,28,09,53,-12.40
2022,03,28,09,54,-12.30
2022,03,28,09,55,-12.30
2022,03,28,09,56,-12.30
2022,03,28,09,57,-12.30
2022,03,28,09,58,-12.30
2022,03,28,09,59,-12.30
2022,03,28,10,00,-12.20
2022,03,28,10,01,-12.20
2022,03,28,10,02,-12.20
2022,03,28,10,03,-12.20
2022,03,28,10,04,-12.10
2022,03,28,10,05,-12.10
2022,03,28,10,06,-12.10
2022,03,28,10,07,-12.00
2022,03,28,10,08,-12.00
2022,03,28,10,09,-11.90
2022,03,28,10,10,-11.90
2022,03,28,10,11,-11.80
2022,03,28,10,12,-11.80
2022,03,28,10,13,-11.80
2022,03,28,10,14,-11.70
2022,03,28,10,15,-11.70
2022,03,28,10,16,-11.70
2022,03,28,10,17,-11.70
2022,03,28,10,18,-11.60
2022,03,28,10,19,-11.60
2022,03,28,10,20,-11.60
2022,03,28,10,21,-11.60
2022,03,28,10,22,-11.50
2022,03,28,10,23,-11.50
2022,03,28,10,24,-11.50
2022,03,28,10,25,-11.40
2022,03,28,10,26,-11.40
2022,03,28,10,27,-11.40
2022,03,28,10,28,-11.30
2022,03,28,10,29,-11.30
2022,03,28,10,30,-11.30
2022,03,28,10,31,-11.20
2022,03,28,10,32,-11.20
2022,03,28,10,33,-11.20
2022,03,28,10,34,-11.10
2022,03,28,10,35,-11.00
2022,03,28,10,36,-11.00
2022,03,28,10,37,-10.90
2022,03,28,10,38,-10.90
2022,03,28,10,39,-10.80
2022,03,28,10,40,-10.80
2022,03,28,10,41,-10.80
2022,03,28,10,42,-10.70
2022,03,28,10,43,-10.70
2022,03,28,10,44,-10.60
2022,03,28,10,45,-10.60
2022,03,28,10,46,-10.50
2022,03,28,10,47,-10.50
2022,03,28,10,48,-10.40
2022,03,28,10,49,-10.30
2022,03,28,10,50,-10.30
2022,03,28,10,51,-10.20
2022,03,28,10,52,-10.10
2022,03,28,10,53,-10.10
2022,03,28,10,54,-10.00
2022,03,28,10,55,-10.00
2022,03,28,10,56,-9.90
2022,03,28,10,57,-9.80
2022,03,28,10,58,-9.80
2022,03,28,10,59,-9.80
2022,03,28,11,00,-9.80
2022,03,28,11,01,-9.70
2022,03,28,11,02,-9.70
2022,03,28,11,03,-9.70
2022,03,28,11,04,-9.60
2022,03,28,11,05,-9.60
2022,03,28,11,06,-9.50
2022,03,28,11,07,-9.40
2022,03,28,11,08,-9.40
2022,03,28,11,09,-9.30
2022,03,28,11,10,-9.20
2022,03,28,11,11,-9.20
2022,03,28,11,12,-9.10
2022,03,28,11,13,-9.00
2022,03,28,11,14,-8.90
2022,03,28,11,15,-8.80
2022,03,28,11,16,-8.70
2022,03,28,11,17,-8.60
2022,03,28,11,18,-8.50
2022,03,28,11,19,-8.40
2022,03,28,11,20,-8.40
2022,03,28,11,21,-8.30
2022,03,28,11,22,-8.30
2022,03,28,11,23,-8.30
2022,03,28,11,24,-8.30
2022,03,28,11,25,-8.20
2022,03,28,11,26,-8.20
2022,03,28,11,27,-8.20
2022,03,28,11,28,-8.10
2022,03,28,11,29,-8.00
2022,03,28,11,30,-7.90
2022,03,28,11,31,-7.80
2022,03,28,11,32,-7.60
2022,03,28,11,33,-7.50
2022,03,28,11,34,-7.40
2022,03,28,11,35,-7.30
2022,03,28,11,36,-7.20
2022,03,28,11,37,-7.10
2022,03,28,11,38,-7.00
2022,03,28,11,39,-6.90
2022,03,28,11,40,-6.70
2022,03,28,11,41,-6.60
2022,03,28,11,42,-6.50
2022,03,28,11,43,-6.50
2022,03,28,11,44,-6.40
2022,03,28,11,45,-6.40
2022,03,28,11,46,-6.40
2022,03,28,11,47,-6.40
2022,03,28,11,48,-6.40
2022,03,28,11,49,-6.40
2022,03,28,11,50,-6.40
2022,03,28,11,51,-6.30
2022,03,28,11,52,-6.30
2022,03,28,11,53,-6.30
2022,03,28,11,54,-6.30
2022,03,28,11,55,-6.30
2022,03,28,11,56,-6.30
2022,03,28,11,57,-6.40
2022,03,28,11,58,-6.40
2022,03,28,11,59,-6.40
2022,03,28,12,00,-6.40
2022,03,28,12,01,-6.50
2022,03,28,12,02,-6.50
2022,03,28,12,03,-6.60
2022,03,28,12,04,-6.60
2022,03,28,12,05,-6.60
2022,03,28,12,06,-6.60
2022,03,28,12,07,-6.60
2022,03,28,12,08,-6.60
2022,03,28,12,09,-6.60
2022,03,28,12,10,-6.60
2022,03,28,12,11,-6.60
2022,03,28,12,12,-6.60
2022,03,28,12,13,-6.60
2022,03,28,12,14,-6.60
2022,03,28,12,15,-6.50
2022,03,28,12,16,-6.50
2022,03,28,12,17,-6.40
2022,03,28,12,18,-6.40
2022,03,28,12,19,-6.40
2022,03,28,12,20,-6.30
2022,03,28,12,21,-6.30
2022,03,28,12,22,-6.30
2022,03,28,12,23,-6.30
2022,03,28,12,24,-6.20
2022,03,28,12,25,-6.20
2022,03,28,12,26,-6.20
2022,03,28,12,27,-6.10
2022,03,28,12,28,-6.10
2022,03,28,12,29,-6.10
2022,03,28,12,30,-6.10
2022,03,28,12,31,-6.10
2022,03,28,12,32,-6.10
2022,03,28,12,33,-6.10
2022,03,28,12,34,-6.10
2022,03,28,12,35,-6.10
2022,03,28,12,36,-6.10
2022,03,28,12,37,-6.10
2022,03,28,12,38,-6.10
2022,03,28,12,39,-6.00
2022,03,28,12,40,-6.00
2022,03,28,12,41,-5.90
2022,03,28,12,42,-5.80
2022,03,28,12,43,-5.70
2022,03,28,12,44,-5.60
2022,03,28,12,45,-5.50
2022,03,28,12,46,-5.50
2022,03,28,12,47,-5.40
2022,03,28,12,48,-5.30
2022,03,28,12,49,-5.20
2022,03,28,12,50,-5.20
2022,03,28,12,51,-5.10
2022,03,28,12,52,-5.00
2022,03,28,12,53,-4.90
2022,03,28,12,54,-4.90
2022,03,28,12,55,-4.80
2022,03,28,12,56,-4.70
2022,03,28,12,57,-4.60
2022,03,28,12,58,-4.60
2022,03,28,12,59,-4.50
2022,03,28,13,00,-4.40
2022,03,28,13,01,-4.20
2022,03,28,13,02,-4.10
2022,03,28,13,03,-4.10
2022,03,28,13,04,-4.00
2022,03,28,13,05,-3.90
2022,03,28,13,06,-3.90
2022,03,28,13,07,-3.80
2022,03,28,13,08,-3.80
2022,03,28,13,09,-3.70
2022,03,28,13,10,-3.60
2022,03,28,13,11,-3.50
2022,03,28,13,12,-3.40
2022,03,28,13,13,-3.30
2022,03,28,13,14,-3.20
2022,03,28,13,15,-3.20
2022,03,28,13,16,-3.20
2022,03,28,13,17,-3.10
2022,03,28,13,18,-3.10
2022,03,28,13,19,-3.10
2022,03,28,13,20,-3.10
2022,03,28,13,21,-3.00
2022,03,28,13,22,-3.00
2022,03,28,13,23,-3.00
2022,03,28,13,24,-3.00
2022,03,28,13,25,-3.00
2022,03,28,13,26,-3.00
2022,03,28,13,27,-3.00
2022,03,28,13,28,-2.90
2022,03,28,13,29,-2.90
2022,03,28,13,30,-2.90
2022,03,28,13,31,-2.90
2022,03,28,13,32,-2.80
2022,03,28,13,33,-2.70
2022,03,28,13,34,-2.50
2022,03,28,13,35,-2.40
2022,03,28,13,36,-2.30
2022,03,28,13,37,-2.10
2022,03,28,13,38,-2.00
2022,03,28,13,39,-1.80
2022,03,28,13,40,-1.70
2022,03,28,13,41,-1.50
2022,03,28,13,42,-1.40
2022,03,28,13,43,-1.20
2022,03,28,13,44,-1.10
2022,03,28,13,45,-1.00
2022,03,28,13,46,-0.90
2022,03,28,13,47,-0.80
2022,03,28,13,48,-0.70
2022,03,28,13,49,-0.60
2022,03,28,13,50,-0.50
2022,03,28,13,51,-0.40
2022,03,28,13,52,-0.30
2022,03,28,13,53,-0.30
2022,03,28,13,54,-0.20
2022,03,28,13,55,-0.10
2022,03,28,13,56,-0.10
2022,03,28,13,57,-0.10
2022,03,28,13,58,-0.20
2022,03,28,13,59,-0.20
2022,03,28,14,00,-0.10
2022,03,28,14,01,-0.10
2022,03,28,14,02,0.00
2022,03,28,14,03,0.00
2022,03,28,14,04,0.10
2022,03,28,14,05,0.20
2022,03,28,14,06,0.30
2022,03,28,14,07,0.40
2022,03,28,14,08,0.50
2022,03,28,14,09,0.60
2022,03,28,14,10,0.80
2022,03,28,14,11,0.90
2022,03,28,14,12,1.10
2022,03,28,14,13,1.20
2022,03,28,14,14,1.30
2022,03,28,14,15,1.50
2022,03,28,14,16,1.60
2022,03,28,14,17,1.80
2022,03,28,14,18,1.90
2022,03,28,14,19,2.00
2022,03,28,14,20,2.10
2022,03,28,14,21,2.20
2022,03,28,14,22,2.30
2022,03,28,14,23,2.30
2022,03,28,14,24,2.30
2022,03,28,14,25,2.30
2022,03,28,14,26,2.30
2022,03,28,14,27,2.30
2022,03,28,14,28,2.40
2022,03,28,14,29,2.40
2022,03,28,14,30,2.50
2022,03,28,14,31,2.60
2022,03,28,14,32,2.80
2022,03,28,14,33,2.80
2022,03,28,14,34,2.90
2022,03,28,14,35,2.90
2022,03,28,14,36,3.00
2022,03,28,14,37,3.10
2022,03,28,14,38,3.20
2022,03,28,14,39,3.30
2022,03,28,14,40,3.50
2022,03,28,14,41,3.60
2022,03,28,14,42,3.70
2022,03,28,14,43,3.80
2022,03,28,14,44,3.90
2022,03,28,14,45,3.90
2022,03,28,14,46,4.00
2022,03,28,14,47,4.10
2022,03,28,14,48,4.10
2022,03,28,14,49,4.20
2022,03,28,14,50,4.20
2022,03,28,14,51,4.30
2022,03,28,14,52,4.30
2022,03,28,14,53,4.30
2022,03,28,14,54,4.40
2022,03,28,14,55,4.40
2022,03,28,14,56,4.40
2022,03,28,14,57,4.40
2022,03,28,14,58,4.30
2022,03,28,14,59,4.30
2022,03,28,15,00,4.30
2022,03,28,15,01,4.30
2022,03,28,15,02,4.30
2022,03,28,15,03,4.30
2022,03,28,15,04,4.30
2022,03,28,15,05,4.30
2022,03,28,15,06,4.30
2022,03,28,15,07,4.30
2022,03,28,15,08,4.40
2022,03,28,15,09,4.40
2022,03,28,15,10,4.40
2022,03,28,15,11,4.40
2022,03,28,15,12,4.40
2022,03,28,15,13,4.40
2022,03,28,15,14,4.40
2022,03,28,15,15,4.40
2022,03,28,15,16,4.40
2022,03,28,15,17,4.40
2022,03,28,15,18,4.50
2022,03,28,15,19,4.50
2022,03,28,15,20,4.60
2022,03,28,15,21,4.60
2022,03,28,15,22,4.70
2022,03,28,15,23,4.70
2022,03,28,15,24,4.80
2022,03,28,15,25,4.80
2022,03,28,15,26,4.80
2022,03,28,15,27,4.80
2022,03,28,15,28,4.80
2022,03,28,15,29,4.80
2022,03,28,15,30,4.80
2022,03,28,15,31,4.80
2022,03,28,15,32,4.80
2022,03,28,15,33,4.80
2022,03,28,15,34,4.70
2022,03,28,15,35,4.70
2022,03,28,15,36,4.70
2022,03,28,15,37,4.70
2022,03,28,15,38,4.70
2022,03,28,15,39,4.80
2022,03,28,15,40,4.80
2022,03,28,15,41,4.80
2022,03,28,15,42,4.80
2022,03,28,15,43,4.80
2022,03,28,15,44,4.80
2022,03,28,15,45,4.80
2022,03,28,15,46,4.80
2022,03,28,15,47,4.80
2022,03,28,15,48,4.80
2022,03,28,15,49,4.80
2022,03,28,15,50,4.80
2022,03,28,15,51,4.70
2022,03,28,15,52,4.70
2022,03,28,15,53,4.80
2022,03,28,15,54,4.80
2022,03,28,15,55,4.70
2022,03,28,15,56,4.80
2022,03,28,15,57,4.80
2022,03,28,15,58,4.80
2022,03,28,15,59,4.80
2022,03,28,16,00,4.80
2022,03,28,16,01,4.80
2022,03,28,16,02,4.80
2022,03,28,16,03,4.80
2022,03,28,16,04,4.80
2022,03,28,16,05,4.80
2022,03,28,16,06,4.80
2022,03,28,16,07,4.90
2022,03,28,16,08,4.90
2022,03,28,16,09,4.90
2022,03,28,16,10,4.90
2022,03,28,16,11,4.90
2022,03,28,16,12,4.90
2022,03,28,16,13,4.90
2022,03,28,16,14,4.90
2022,03,28,16,15,4.90
2022,03,28,16,16,4.90
2022,03,28,16,17,4.90
2022,03,28,16,18,4.90
2022,03,28,16,19,4.90
2022,03,28,16,20,4.90
2022,03,28,16,21,4.90
2022,03,28,16,22,4.80
2022,03,28,16,23,4.80
2022,03,28,16,24,4.80
2022,03,28,16,25,4.70
2022,03,28,16,26,4.70
2022,03,28,16,27,4.70
2022,03,28,16,28,4.70
2022,03,28,16,29,4.70
2022,03,28,16,30,4.70
2022,03,28,16,31,4.60
2022,03,28,16,32,4.60
2022,03,28,16,33,4.60
2022,03,28,16,34,4.60
2022,03,28,16,35,4.60
2022,03,28,16,36,4.60
2022,03,28,16,37,4.70
2022,03,28,16,38,4.70
2022,03,28,16,39,4.70
2022,03,28,16,40,4.70
2022,03,28,16,41,4.70
2022,03,28,16,42,4.70
2022,03,28,16,43,4.70
2022,03,28,16,44,4.70
2022,03,28,16,45,4.80
2022,03,28,16,46,4.80
2022,03,28,16,47,4.80
2022,03,28,16,48,4.80
2022,03,28,16,49,4.90
2022,03,28,16,50,4.90
2022,03,28,16,51,4.90
2022,03,28,16,52,4.90
2022,03,28,16,53,4.90
2022,03,28,16,54,5.00
2022,03,28,16,55,5.00
2022,03,28,16,56,5.00
2022,03,28,16,57,5.00
2022,03,28,16,58,5.00
2022,03,28,16,59,5.00
2022,03,28,17,00,5.00
2022,03,28,17,01,5.00
2022,03,28,17,02,5.00